Location: Praha
(50.0830°N, 14.4670°E)
Time: 05:18:54
(UTC+02:00)

ISS - Pass Details

Date: 18 May 2021
Orbit: 417 x 422 km, 51.6° (Epoch: 13 June)

Event Time Altitude Azimuth Distance (km) Brightness Sun altitude
Rises 22:52:55 0° 262° (W) 2,362 0.4 -14.8°
Reaches altitude 10° 22:55:00 10° 265° (W) 1,500 -0.6 -15.0°
Maximum altitude 22:58:22 73° 350° (N) 444 -3.6 -15.3°
Drops below altitude 10° 23:01:45 10° 76° (ENE) 1,506 -1.1 -15.5°
Enters shadow 23:03:21 - 78° (ENE) 2,163 -0.3 -15.7°
